Flag for China Weather past 2 weeks in Changsha, Hunan, China

Now
52 °F

Overcast.


Feels Like: 52 °F
Forecast: 42 / 46 °F
Wind: 1 mph from East

Location: Changsha

Current Time: Mar 4, 2015 at 7:31:52 PM

Latest Report: Mar 4, 2015 at 6:00 PM


Visibility: 4 mi

Pressure: 30.09 "Hg

Humidity: 54%

Dew point: 36 °F

Location of ChangshaLocation

Historic Weather in Changsha — Graph

°F

Changsha temperature yesterday

Maximum temperature yesterday: 54 °F (at 3:00 PM)
Minimum temperature yesterday: 45 °F (at 1:00 AM)
Average temperature yesterday: 49 °F

Past Weeks' High & Low Weather Summary

 TemperatureHumidityPressure
High70 °F (Feb 18, 1:00 PM)94% (Feb 19, 12:00 AM)30.45 "Hg (Feb 19, 12:00 AM)
Low39 °F (Feb 28, 11:00 AM)47% (Mar 4, 3:00 PM)29.89 "Hg (Feb 24, 4:00 PM)
Average49 °F84%30.09 "Hg
* Reported Feb 17 6:00 PM — Mar 4 6:00 PM, Changsha, Weather by CustomWeather, © 2015

Note: Actual official high and low records may vary slightly from our data, if they occured in-between our weather recording intervals... More about our weather records

Advertising

Changsha weather history for previous 24 hours

 ConditionsComfort  
Time TempWeatherWind HumidityBarometerVisibility
6:00 PM
Wed, Mar 4
52 °FOvercast.1 mph54%30.09 "Hg4 mi
5:00 PM52 °FPassing clouds.1 mph54%30.09 "Hg6 mi
4:00 PM54 °FSunny.1 mph51%30.09 "Hg10 mi
3:00 PM54 °FPassing clouds.3 mph47%30.09 "HgN/A
2:00 PM54 °FPassing clouds.3 mph51%30.12 "HgN/A
1:00 PM52 °FPassing clouds.6 mph54%30.15 "HgN/A
12:00 PM52 °FPassing clouds.6 mph54%30.18 "HgN/A
11:00 AM50 °FPassing clouds.6 mph58%30.18 "HgN/A
10:00 AM48 °FSunny.6 mph58%30.18 "Hg10 mi
9:00 AM48 °FSunny.3 mph62%30.18 "Hg10 mi
8:00 AM48 °FSunny.3 mph62%30.12 "Hg10 mi
7:00 AM48 °FClear.6 mph66%30.12 "Hg6 mi
6:00 AM48 °FClear.6 mph66%30.09 "Hg6 mi
5:00 AM48 °FFog.3 mph87%30.07 "Hg3 mi
4:00 AM48 °FFog.3 mph87%30.09 "Hg2 mi
3:00 AM48 °FFog.3 mph87%30.09 "Hg2 mi
2:00 AM48 °FFog.1 mph87%30.09 "Hg2 mi
1:00 AM48 °FFog.No wind87%30.09 "Hg2 mi
12:00 AM48 °FFog.No wind87%30.09 "Hg3 mi
11:00 PM
Tue, Mar 3
50 °FFog.1 mph82%30.12 "Hg3 mi
10:00 PM50 °FFog.1 mph82%30.12 "Hg3 mi
9:00 PM50 °FFog.1 mph82%30.09 "Hg3 mi
8:00 PM52 °FFog.1 mph72%30.07 "Hg3 mi
7:00 PM52 °FClear.1 mph67%30.07 "Hg4 mi
Weather by CustomWeather, © 2015

See weather overviewHow to use our weather pages